Probability
0 0 0 0 0 0 0 0 0 0 0 0 0 0 0 0 0 0 0 0 0 0 0 0 0 0 0 0 0 0 0 0 0 0 0 0 0 0 0 0 0 0 0 0
0 0 0 0 0 0 0 0 0 0 0 0 0 0 0 0 0 0 0 0 0 0 0 0 0 0 0 0 0 0 0 0 0 0 0 0 0 0 0 0 0 0 0 0
0 0 0 0 0 0 0 0 0 0 0 0 0 0 0 0 0 0 0 0 0 0 0 0 0 0 0 0 0 0 0 0 0 0 0 0 0 0 0 0 0 0 0 0
0 0 0 0 0 0 0 0 0 0 0 0 0 0 0 0 0 0 0 0 0 0 0 0 0 0 0 0 0 0 0 0 0 0 0 0 0 0 0 0 0 0 0 0
0 0 0 0 0 0 0 0 0 0 0 0 0 0 0 0 0 0 0 0 0 0 0 0 0 0 0 0 0 0 0 0 0 0 0 0 0 0 0 0 0 0 0 0
0 0 0 0 0 0 0 0 0 0 0 0 0 0 0 0 0 0 0 0 0 0 0 0 0 0 0 0 0 0 0 0 0 0 0 0 0 0 0 0 0 0 0 0
0 0 0 0 0 0 0 0 0 0 0 0 0 0 0 0 0 0 0 0 0 0 0 0 0 0 0 0 0 0 0 0 0 0 0 0 0 0 0 0 0 0 0 0
0 0 0 0 0 0 0 0 0 0 0 0 0 0 0 0 0 0 0 0 0 0 0 0 0 0 0 0 0 0 0 0 0 0 0 0 0 0 0 0 0 0 0 0
0 0 0 0 0 0 0 0 0 0 0 0 0 0 0 0 0 0 0 0 0 0 0 0 0 0 0 0 0 0 0 0 0 0 0 0 0 0 0 0 0 0 0 0
0 0 0 0 0 0 0 0 0 0 0 0 0 0 0 0 0 0 0 0 0 0 0 0 0 0 0 0 0 0 0 0 0 0 0 0 0 0 0 0 0 0 0 0
0 0 0 0 0 0 0 0 0 0 0 0 0 0 0 0 0 0 0 0 0 0 0 0 0 0 0 0 0 0 0 0 0 0 0 0 0 0 0 0 0 0 0 0
0 0 0 0 0 0 0 0 0 0 0 0 0 0 0 0 0 0 0 0 0 0 0 0 0 0 0 0 0 0 0 0 0 0 0 0 0 0 0 0 0 0 0 0
0 0 0 0 0 0 0 0 0 0 0 0 0 0 0 0 0 0 0 0 0 0 0 0 0 0 0 0 0 0 0 0 0 0 0 0 0 0 0 0 0 0 0 0
0 0 0 0 0 0 0 0 0 0 0 0 0 0 0 0 0 0 0 0 0 0 0 0 0 0 0 0 0 0 0 0 0 0 0 0 0 0 0 0 0 0 0 0
0 0 0 0 0 0 0 0 0 0 0 0 0 0 0 0 0 0 0 0 0 0 0 0 0 0 0 0 0 0 0 0 0 0 0 0 0 0 0 0 0 0 0 0
0 0 0 0 0 0 0 0 0 0 0 0 0 0 0 0 0 0 0 0 0 0 0 0 0 0 0 0 0 0 0 0 0 0 0 0 0 0 0 0 0 0 0 0
0 0 0 0 0 0 0 0 0 0 0 0 0 0 0 0 0 0 0 0 0 0 0 0 0 0 0 0 0 0 0 0 0 0 0 0 0 0 0 0 0 0 0 0
0 0 0 0 0 0 0 0 0 0 0 0 0 0 0 0 0 0 0 0 0 0 0 0 0 0 0 0 0 0 0 0 0 0 0 0 0 0 0 0 0 0 0 0
0 0 0 0 0 0 0 0 0 0 0 0 0 0 0 0 0 0 0 0 0 0 0 0 0 0 0 0 0 0 0 0 0 0 0 0 0 0 0 0 0 0 0 0
0 0 0 0 0 0 0 0 0 0 0 0 0 0 0 0 0 0 0 0 0 0 0 0 0 0 0 0 0 0 0 0 0 0 0 0 0 0 0 0 0 0 0 0
0 0 0 0 0 0 0 0 0 0 0 0 0 0 0 0 0 0 0 0 0 0 0 0 0 0 0 0 0 0 0 0 0 0 0 0 0 0 0 0 0 0 0 0
0 0 0 0 0 0 0 0 0 0 0 0 0 0 0 0 0 0 0 0 0 0 0 0 0 0 0 0 0 0 0 0 0 0 0 0 0 0 0 0 0 0 0 0
0 0 0 0 0 0 0 0 0 0 0 0 0 0 0 0 0 0 0 0 0 0 0 0 0 0 0 0 0 0 0 0 0 0 0 0 0 0 0 0 0 0 0 0
0 0 0 0 0 0 0 0 0 0 0 0 0 0 0 0 0 0 0 0 0 0 0 0 0 0 0 0 0 0 0 0 0 0 0 0 0 0 0 0 0 0 0 0
0 0 0 0 0 0 0 0 0 0 0 0 0 0 0 0 0 0 0 0 0 0 0 0 0 0 0 0 0 0 0 0 0 0 0 0 0 0 0 0 0 0 0 0
0 0 0 0 0 0 0 0 0 0 0 0 0 0 0 0 0 0 0 0 0 0 0 0 0 0 0 0 0 0 0 0 0 0 0 0 0 0 0 0 0 0 0 0
Height
5701 5700 5697 5696 5695 5694 5693 5693 5693 5693 5694 5695 5696 5697 5700 5702 5705 5709 5713 5718 5723 5727 5732 5737 5742 5746 5750 5754 5757 5760 5764 5766 5769 5772 5774 5776 5778 5780 5782 5783 5785 5786 5787 5788
5702 5700 5698 5696 5695 5694 5693 5692 5692 5693 5693 5694 5695 5696 5698 5700 5703 5707 5711 5716 5720 5724 5729 5733 5737 5742 5745 5749 5752 5755 5758 5761 5763 5766 5768 5770 5772 5773 5775 5776 5778 5779 5780 5780
5702 5700 5698 5696 5695 5694 5693 5693 5693 5692 5693 5693 5694 5695 5697 5699 5701 5705 5709 5713 5717 5721 5725 5730 5733 5737 5741 5744 5747 5750 5753 5755 5757 5760 5762 5763 5765 5766 5768 5769 5770 5771 5772 5772
5702 5700 5698 5697 5695 5694 5694 5693 5693 5692 5692 5693 5694 5694 5696 5697 5700 5703 5707 5711 5715 5719 5722 5726 5729 5733 5736 5739 5742 5744 5747 5749 5752 5753 5755 5757 5758 5759 5760 5761 5762 5763 5763 5764
5702 5700 5698 5697 5696 5695 5694 5694 5693 5693 5693 5693 5693 5694 5696 5696 5698 5701 5705 5708 5712 5715 5719 5722 5726 5729 5731 5734 5737 5739 5741 5743 5745 5747 5749 5750 5751 5752 5753 5754 5754 5755 5755 5755
5702 5700 5699 5698 5696 5695 5694 5694 5694 5693 5693 5693 5693 5693 5695 5695 5698 5700 5703 5706 5709 5712 5716 5718 5721 5724 5727 5729 5731 5733 5735 5737 5739 5741 5742 5743 5744 5745 5745 5746 5746 5746 5746 5746
5703 5701 5699 5697 5696 5696 5695 5695 5694 5693 5692 5692 5693 5693 5695 5695 5697 5699 5701 5704 5706 5710 5712 5715 5717 5720 5722 5724 5726 5728 5730 5731 5733 5734 5735 5736 5737 5737 5737 5737 5738 5738 5738 5738
5702 5701 5699 5697 5696 5695 5694 5694 5694 5693 5692 5693 5693 5693 5695 5695 5696 5697 5700 5702 5704 5706 5709 5711 5713 5715 5717 5719 5721 5722 5723 5725 5726 5727 5728 5728 5729 5729 5729 5729 5729 5729 5729 5729
5701 5701 5699 5697 5696 5695 5694 5694 5694 5694 5693 5693 5693 5693 5694 5694 5695 5696 5698 5699 5701 5703 5705 5707 5709 5711 5712 5714 5715 5717 5718 5719 5719 5720 5720 5720 5721 5721 5720 5720 5720 5720 5720 5720
5701 5700 5699 5697 5696 5695 5695 5694 5693 5693 5691 5691 5692 5692 5693 5692 5693 5694 5696 5697 5699 5700 5702 5703 5705 5706 5707 5709 5709 5710 5711 5712 5712 5713 5713 5713 5712 5712 5712 5711 5711 5711 5711 5710
5701 5700 5699 5697 5695 5694 5694 5693 5692 5691 5690 5690 5690 5693 5691 5691 5691 5692 5693 5694 5695 5696 5698 5699 5700 5701 5702 5703 5703 5704 5704 5705 5705 5705 5705 5704 5704 5703 5703 5702 5702 5701 5701 5700
5700 5699 5697 5696 5695 5693 5692 5691 5691 5690 5689 5688 5688 5692 5688 5688 5688 5689 5689 5690 5691 5692 5693 5693 5694 5695 5696 5697 5697 5697 5697 5697 5697 5697 5696 5696 5695 5695 5694 5694 5692 5692 5691 5690
5698 5697 5696 5695 5695 5693 5691 5690 5688 5688 5687 5686 5686 5689 5686 5685 5685 5685 5686 5686 5686 5687 5687 5688 5688 5689 5689 5690 5690 5690 5689 5689 5689 5688 5687 5687 5686 5686 5685 5684 5683 5682 5681 5680
5696 5695 5694 5693 5691 5689 5688 5688 5686 5685 5684 5684 5684 5684 5683 5681 5681 5681 5681 5681 5682 5682 5682 5682 5682 5682 5682 5682 5682 5682 5682 5681 5680 5679 5678 5678 5677 5676 5675 5674 5673 5672 5671 5669
5692 5691 5690 5689 5688 5686 5685 5685 5683 5682 5681 5680 5680 5679 5679 5678 5677 5677 5676 5676 5676 5676 5675 5675 5675 5675 5674 5674 5674 5674 5673 5672 5671 5670 5669 5668 5667 5666 5665 5664 5663 5661 5660 5658
5688 5687 5685 5685 5684 5682 5681 5681 5679 5678 5676 5675 5674 5675 5674 5672 5672 5671 5671 5670 5670 5669 5669 5668 5668 5667 5667 5666 5666 5665 5664 5663 5662 5661 5660 5659 5658 5656 5655 5654 5652 5651 5649 5647
5683 5681 5680 5679 5678 5676 5677 5676 5674 5673 5671 5670 5669 5670 5668 5667 5666 5665 5665 5664 5663 5662 5662 5661 5660 5659 5658 5658 5657 5656 5655 5654 5653 5651 5650 5649 5647 5646 5644 5643 5641 5640 5638 5636
5676 5674 5672 5672 5672 5671 5674 5670 5668 5666 5666 5664 5663 5662 5661 5660 5659 5658 5657 5656 5655 5655 5654 5653 5652 5651 5650 5649 5648 5647 5645 5644 5643 5641 5640 5638 5637 5635 5634 5632 5630 5628 5627 5624
5670 5668 5665 5664 5663 5663 5665 5663 5661 5659 5659 5657 5655 5654 5653 5652 5651 5651 5650 5648 5647 5646 5645 5645 5643 5642 5641 5640 5639 5637 5636 5634 5633 5631 5629 5628 5626 5625 5623 5621 5619 5617 5615 5612
5662 5660 5659 5656 5654 5654 5657 5655 5652 5652 5651 5650 5648 5646 5645 5644 5643 5643 5641 5640 5639 5637 5636 5636 5634 5633 5632 5631 5629 5628 5626 5625 5623 5621 5619 5617 5616 5614 5612 5610 5608 5605 5603 5600
5654 5652 5651 5648 5646 5646 5648 5645 5643 5643 5643 5640 5639 5637 5636 5635 5634 5633 5632 5630 5629 5628 5627 5626 5625 5624 5622 5621 5619 5618 5616 5615 5613 5611 5609 5607 5605 5603 5601 5599 5596 5594 5591 5588
5644 5643 5642 5640 5638 5640 5637 5635 5635 5634 5632 5630 5629 5628 5627 5625 5624 5623 5622 5621 5620 5618 5617 5616 5615 5614 5612 5611 5610 5608 5607 5605 5603 5601 5599 5597 5594 5592 5590 5587 5585 5582 5578 5576
5634 5634 5631 5631 5632 5629 5626 5624 5623 5622 5622 5620 5619 5618 5616 5615 5614 5613 5612 5611 5610 5608 5607 5606 5605 5603 5602 5601 5599 5598 5596 5594 5592 5590 5588 5586 5583 5581 5578 5575 5572 5569 5566 5563
5624 5622 5621 5620 5620 5618 5616 5613 5612 5611 5610 5609 5608 5607 5606 5605 5604 5603 5602 5600 5599 5598 5597 5595 5594 5592 5591 5590 5588 5587 5585 5583 5581 5579 5577 5574 5572 5569 5566 5563 5560 5557 5554 5550
5612 5611 5609 5607 5608 5606 5605 5602 5601 5600 5598 5598 5597 5596 5595 5594 5593 5591 5590 5589 5588 5587 5585 5584 5583 5581 5580 5579 5577 5575 5574 5572 5570 5568 5565 5563 5560 5557 5554 5551 5548 5544 5541 5537
5601 5598 5596 5595 5595 5592 5592 5590 5589 5587 5587 5586 5585 5584 5583 5582 5581 5579 5578 5577 5576 5575 5574 5572 5571 5570 5568 5567 5565 5563 5561 5560 5558 5556 5553 5551 5548 5545 5542 5539 5536 5531 5528 5524
Wind_Speed
11 10 10 9 8 8 7 8 8 9 10 12 14 15 17 19 21 23 25 27 28 28 29 31 33 34 33 33 33 34 34 35 35 35 35 36 36 36 36 36 36 36 34 34
11 10 10 9 9 8 7 7 7 7 8 9 11 13 15 18 19 21 24 26 27 28 28 29 31 33 32 32 33 34 34 34 35 35 36 36 36 37 36 36 36 35 34 34
12 10 9 9 9 7 7 7 7 8 8 8 9 11 13 16 18 20 23 24 25 25 27 27 29 31 31 29 30 32 34 34 35 36 36 36 36 36 36 36 37 37 36 36
12 10 10 9 8 7 6 7 7 7 7 7 9 10 11 13 17 20 22 23 24 24 25 26 27 28 29 29 29 28 30 31 33 34 35 35 35 35 36 36 37 37 37 37
12 11 10 9 8 8 7 7 7 8 9 9 9 9 10 13 15 18 20 21 23 23 24 25 26 27 27 28 28 28 29 30 31 31 32 33 35 36 36 36 37 36 37 37
13 12 11 10 9 9 8 8 8 8 9 9 10 10 9 11 14 16 18 20 21 22 23 24 26 27 27 27 28 28 28 30 31 31 32 33 34 36 37 37 37 37 37 37
13 13 11 11 10 9 9 9 9 9 7 8 9 10 9 11 12 15 17 19 20 21 22 23 24 25 25 26 27 28 28 29 31 32 33 34 34 35 36 36 36 37 37 37
13 13 11 11 11 10 10 10 10 10 10 8 8 10 10 11 13 15 17 18 19 20 21 22 24 25 26 26 27 27 28 29 30 32 33 33 34 34 35 35 35 36 36 37
13 12 12 12 11 11 10 10 11 11 12 11 10 10 11 12 13 14 16 17 19 20 21 22 24 25 26 26 27 28 29 30 31 31 32 33 34 34 34 35 35 36 36 37
14 13 12 12 12 11 11 11 11 12 13 13 11 11 11 11 13 14 16 17 19 20 21 22 23 25 25 26 27 28 29 30 30 31 33 34 34 35 35 36 36 37 38 39
15 14 13 13 12 12 12 13 13 13 13 13 13 12 12 12 13 14 16 18 19 21 22 23 24 25 25 26 27 28 29 30 31 32 33 34 35 36 36 37 38 38 39 39
16 16 15 14 14 14 13 13 13 14 14 14 14 13 13 14 15 16 17 19 20 21 22 24 25 26 26 27 28 29 30 31 32 32 33 34 35 36 37 38 38 39 39 40
17 17 17 16 15 15 14 14 15 16 16 16 16 15 14 15 16 17 18 20 21 22 23 24 25 26 27 28 29 30 31 32 33 34 35 35 35 36 37 38 39 40 40 41
19 19 19 18 18 17 16 16 17 18 18 18 17 17 17 17 18 19 20 21 22 23 24 25 26 27 28 29 30 31 32 33 34 35 36 36 37 37 38 39 39 40 41 42
22 21 21 20 20 20 19 19 19 20 20 20 19 19 19 20 20 20 21 22 23 25 26 27 28 29 30 31 31 32 33 34 35 36 36 37 38 38 39 39 40 41 42 43
24 24 23 22 22 23 22 21 21 21 22 22 22 21 21 22 22 22 23 24 25 26 27 29 30 30 31 32 33 34 35 35 35 36 37 38 39 39 39 39 40 41 42 43
26 26 26 25 25 25 24 22 23 23 23 24 24 23 24 24 24 24 25 26 26 27 28 29 30 31 32 33 34 34 35 36 36 37 38 39 39 40 40 40 40 41 42 43
29 28 29 28 28 28 25 24 24 25 25 25 25 26 26 27 27 26 27 28 28 29 29 30 31 31 32 33 34 34 35 36 37 37 38 39 39 39 40 40 41 41 42 42
30 30 31 31 31 30 27 27 27 28 27 27 28 28 29 29 29 28 28 29 29 30 30 30 31 32 33 33 34 34 35 36 36 37 37 38 39 39 39 40 40 40 41 42
32 32 33 33 34 33 30 30 30 30 30 30 31 31 31 31 31 30 31 31 31 31 31 32 32 32 33 33 33 34 34 35 36 36 37 37 38 38 39 39 40 40 41 42
33 34 35 35 36 35 33 33 33 33 32 32 32 32 32 33 33 33 33 33 33 33 33 33 33 34 34 34 34 34 34 35 36 37 37 37 38 39 40 40 41 42 43 43
36 37 37 37 38 36 35 35 36 35 35 34 34 34 35 35 35 35 35 34 34 34 35 35 35 35 35 35 35 35 36 36 37 37 38 39 39 40 41 42 43 43 44 44
39 39 39 39 39 38 38 38 38 38 37 37 36 36 36 36 36 36 36 36 36 37 37 37 37 37 37 37 37 37 37 38 38 38 39 39 40 40 41 42 43 44 44 45
41 41 42 41 40 40 41 41 40 40 39 39 38 38 38 37 37 38 38 38 38 38 38 39 39 38 38 38 39 39 39 39 40 40 40 40 41 42 42 43 43 44 45 45
43 43 43 44 43 43 43 43 42 42 41 40 39 39 40 39 39 39 39 40 40 39 39 39 39 39 39 40 40 40 41 41 41 41 41 42 42 43 43 43 44 44 45 46
43 44 45 45 44 45 44 43 42 42 42 42 41 41 41 41 41 41 41 41 41 40 40 40 39 39 40 40 41 41 41 41 41 42 42 43 44 44 44 45 45 46 46 47
Wind_Direction
346 342 343 336 327 314 300 285 269 259 252 250 246 243 238 234 230 223 217 215 216 218 219 222 223 225 227 229 231 234 237 239 241 243 245 247 249 252 252 253 255 257 260 264
347 345 344 342 331 315 301 288 274 267 266 255 251 243 237 231 226 220 217 216 218 220 220 223 225 226 228 231 233 236 239 242 243 245 247 250 252 253 254 256 258 259 261 264
347 346 342 338 331 319 302 287 277 273 266 258 255 245 237 230 223 217 215 216 220 222 221 224 227 230 232 235 237 240 242 244 246 247 248 251 254 255 258 259 259 260 262 265
347 346 343 340 332 327 308 287 281 282 278 269 260 254 240 231 224 219 218 220 223 225 226 226 229 233 236 238 241 243 245 246 248 250 252 254 256 258 260 262 263 263 265 268
345 342 342 342 334 325 317 307 290 284 282 273 265 263 250 237 229 223 222 223 227 227 229 229 231 235 239 241 244 246 248 250 251 253 255 257 258 260 263 265 264 264 266 267
345 342 338 334 332 330 320 321 311 298 285 275 272 263 254 247 238 229 226 226 228 229 231 234 234 236 240 244 245 246 248 251 253 255 258 260 261 262 264 265 265 266 267 268
345 344 339 336 329 323 316 312 321 319 304 286 276 269 264 255 243 234 231 230 231 232 236 236 237 238 242 246 248 249 251 254 256 259 262 264 265 267 267 267 269 269 268 268
340 342 339 334 329 324 319 310 309 314 311 303 280 271 271 263 249 241 237 235 234 236 238 240 242 243 246 250 253 254 255 257 261 263 265 266 267 270 270 270 271 271 270 269
337 338 335 331 327 322 317 311 309 307 304 305 297 286 281 273 261 250 242 239 238 238 241 243 244 246 249 252 255 257 259 261 264 266 267 268 270 270 271 272 274 273 272 272
332 332 334 330 324 315 311 308 310 310 307 306 300 292 286 279 267 259 251 246 245 244 244 245 248 250 252 255 258 258 259 261 264 268 270 270 271 271 272 275 276 275 275 274
330 329 328 326 322 317 309 305 304 306 308 306 302 297 286 277 269 262 257 254 253 250 250 251 253 254 256 258 261 262 263 265 267 269 271 272 272 273 274 276 276 276 276 277
325 325 323 321 320 315 310 305 302 300 301 301 297 296 285 277 270 264 260 258 259 257 256 256 257 259 260 261 264 265 266 267 269 270 272 274 274 275 275 277 276 276 277 278
318 318 317 315 313 311 308 304 299 295 294 294 293 293 286 281 274 268 264 261 262 262 262 261 261 261 263 264 266 267 268 269 271 272 273 274 275 276 277 278 277 277 278 278
311 311 311 311 310 308 306 301 297 294 293 293 292 290 287 282 278 274 269 265 263 264 264 264 264 265 266 268 269 270 272 272 273 273 273 274 275 277 278 279 279 279 279 278
307 306 305 303 303 303 303 299 295 294 292 291 291 288 285 282 281 277 273 270 267 267 267 267 267 268 269 271 271 272 273 274 274 274 274 275 276 277 279 279 280 280 279 279
302 302 300 299 299 298 299 298 295 293 291 289 288 287 283 282 281 279 276 274 272 272 272 271 270 270 271 273 273 274 275 274 275 275 276 276 277 277 279 279 280 281 281 281
298 298 298 298 297 295 296 296 295 293 291 289 288 287 285 283 281 280 279 277 276 275 275 274 274 273 274 274 274 275 276 276 276 277 276 277 278 279 279 280 280 281 282 283
295 295 294 295 295 294 298 295 292 290 290 289 288 287 285 285 283 281 280 280 279 278 277 277 277 276 276 276 276 277 278 279 279 278 278 278 278 279 281 282 283 282 283 284
291 291 292 293 293 293 295 294 291 290 288 287 286 286 285 284 282 281 280 280 280 279 279 279 278 278 278 278 278 278 279 280 280 280 280 279 279 280 282 283 284 284 285 286
289 289 291 292 292 292 294 291 289 287 286 286 285 285 285 284 281 281 280 280 279 278 278 280 280 280 279 279 280 280 280 281 282 281 282 282 281 282 284 285 286 286 287 288
287 287 288 290 290 292 292 290 288 286 287 286 285 284 283 282 281 281 280 280 280 278 278 278 279 279 280 280 280 280 281 282 282 283 283 283 284 284 285 286 287 288 288 288
286 287 287 287 288 291 290 288 286 286 286 285 284 283 283 282 281 280 279 279 279 279 278 278 278 279 280 281 281 281 281 282 283 285 284 284 285 285 286 287 288 288 288 288
284 286 286 287 287 288 286 286 285 284 284 285 284 283 282 281 280 280 280 280 279 279 279 278 278 278 279 280 281 281 282 283 284 285 286 286 286 286 287 287 288 289 289 289
283 283 285 285 285 284 283 283 283 282 282 282 282 282 281 281 280 279 279 280 280 280 279 279 278 279 279 280 281 282 283 284 284 285 287 288 288 288 288 289 289 289 289 289
282 283 283 283 283 282 281 282 281 280 280 279 280 280 280 281 281 280 280 280 281 281 280 280 280 280 280 280 281 282 283 284 284 285 286 287 288 289 289 289 290 290 290 290
282 281 281 281 281 280 280 280 280 279 280 280 279 279 280 281 281 280 280 280 281 281 280 280 280 280 281 281 282 283 283 284 284 285 285 286 287 289 289 290 289 290 291 291